Home > Weather > Haan > Past weeks

Flag for Germany Weather for the Past 2 Weeks in Haan, North Rhine-Westphalia, Germany

Now
37 °F

Passing clouds.


Feels Like: 34 °F
Forecast: 34 / 42 °F
Wind: 5 mph from South

Location: Duesseldorf

Current Time: Feb 12, 2016 at 12:39:56 AM

Latest Report: Feb 11, 2016 at 11:50 PM


Visibility: N/A

Pressure: 29.68 "Hg

Humidity: 93%

Dew point: 36 °F

Location of HaanLocation

Historic Weather in Haan — Graph

°F

Haan Temperature Yesterday

Maximum temperature yesterday: 45 °F (at 12:50 PM)
Minimum temperature yesterday: 36 °F (at 1:50 AM)
Average temperature yesterday: 40 °F

High & Low Weather Summary for the Past Weeks

 TemperatureHumidityPressure
High54 °F (Jan 31, 11:50 PM)100% (Jan 28, 4:20 AM)30.33 "Hg (Jan 28, 4:20 AM)
Low36 °F (Jan 28, 10:50 PM)57% (Jan 28, 2:50 PM)28.77 "Hg (Feb 9, 4:20 PM)
Average45 °F83%29.83 "Hg
* Reported Jan 27 10:20 PM — Feb 11 10:20 PM, Haan, Weather by CustomWeather, © 2016

Note: Actual official high and low records may vary slightly from our data, if they occured in-between our weather recording intervals... More about our weather records

Advertising

Haan Weather History for the Previous 24 Hours

 ConditionsComfort  
Time TempWeatherWind HumidityBarometerVisibility
10:20 PM
Thu, Feb 11
36 °FClear.8 mph93%29.68 "Hg10 mi
9:50 PM36 °FClear.9 mph93%29.68 "Hg10 mi
9:20 PM37 °FPassing clouds.8 mph87%29.68 "HgN/A
8:50 PM37 °FClear.8 mph87%29.68 "Hg10 mi
8:20 PM37 °FClear.9 mph87%29.68 "Hg10 mi
7:50 PM39 °FClear.8 mph81%29.68 "Hg10 mi
7:20 PM39 °FClear.10 mph81%29.68 "Hg10 mi
6:50 PM39 °FPassing clouds.8 mph81%29.68 "HgN/A
6:20 PM39 °FPassing clouds.8 mph81%29.68 "HgN/A
5:50 PM39 °FPassing clouds.7 mph81%29.68 "HgN/A
5:20 PM43 °FPartly sunny.6 mph71%29.68 "HgN/A
4:50 PM45 °FPartly sunny.5 mph66%29.65 "HgN/A
4:20 PM45 °FBroken clouds.7 mph71%29.65 "HgN/A
3:50 PM45 °FBroken clouds.10 mph71%29.65 "HgN/A
3:20 PM45 °FBroken clouds.13 mph66%29.65 "HgN/A
2:50 PM45 °FScattered clouds.8 mph71%29.65 "HgN/A
2:20 PM45 °FScattered clouds.12 mph66%29.65 "HgN/A
1:50 PM45 °FScattered clouds.14 mph66%29.65 "HgN/A
1:20 PM45 °FPartly sunny.13 mph71%29.68 "HgN/A
12:50 PM45 °FPartly sunny.13 mph71%29.68 "HgN/A
12:20 PM43 °FBroken clouds.13 mph76%29.68 "HgN/A
11:50 AM43 °FBroken clouds.13 mph81%29.68 "HgN/A
11:20 AM41 °FPartly sunny.13 mph87%29.68 "Hg6 mi
10:50 AM41 °FPartly sunny.10 mph87%29.68 "Hg6 mi
10:20 AM39 °FPartly sunny.13 mph93%29.68 "Hg6 mi
9:50 AM39 °FPartly sunny.13 mph93%29.65 "Hg5 mi
9:20 AM37 °FPartly sunny.10 mph100%29.65 "Hg6 mi
8:50 AM37 °FPartly sunny.12 mph100%29.65 "Hg6 mi
8:20 AM36 °FScattered clouds.10 mph100%29.65 "HgN/A
7:50 AM37 °FPassing clouds.8 mph93%29.65 "HgN/A
7:20 AM39 °FPartly cloudy.10 mph93%29.62 "HgN/A
6:50 AM37 °FPartly cloudy.9 mph100%29.62 "HgN/A
6:20 AM39 °FPassing clouds.12 mph93%29.62 "Hg6 mi
5:50 AM39 °FPassing clouds.12 mph93%29.62 "HgN/A
5:20 AM39 °FPassing clouds.10 mph93%29.62 "HgN/A
4:50 AM39 °FClear.10 mph93%29.62 "Hg10 mi
4:20 AM39 °FClear.10 mph93%29.62 "Hg10 mi
3:50 AM39 °FClear.9 mph93%29.62 "Hg10 mi
3:20 AM37 °FClear.9 mph100%29.62 "Hg10 mi
2:50 AM37 °FClear.9 mph93%29.59 "Hg6 mi
2:20 AM36 °FClear.9 mph93%29.59 "Hg10 mi
1:50 AM36 °FClear.8 mph93%29.59 "Hg10 mi
1:20 AM37 °FPassing clouds.7 mph93%29.59 "HgN/A
12:50 AM37 °FPassing clouds.8 mph100%29.59 "HgN/A
12:20 AM39 °FPassing clouds.7 mph93%29.56 "HgN/A
Weather by CustomWeather, © 2016

See weather overviewHow to use our weather pages